Temp
32 31 32 32 31 31 30 30 31 30 29 28 27 27 27 26 26 26 26 26 27 28 27 27 26 25 24 23 22 22 22 23 23 24 24 24 21 20 19 18 18 17 17 18 18 17 17 17 17 18 20 20 19 18 18 19 18 17 18 18 19 19 18 18 18 18 18 18 19
31 31 32 34 33 32 30 30 30 30 29 28 28 27 27 27 27 27 26 26 27 28 27 27 25 24 23 23 23 23 23 24 23 23 24 23 21 20 19 19 18 18 18 18 17 18 18 17 17 18 20 20 19 18 18 19 18 17 17 17 18 18 18 19 19 19 18 18 18
31 31 31 32 32 31 29 29 29 29 28 27 27 27 27 27 27 27 27 26 26 26 26 26 25 24 24 23 23 23 24 24 23 23 22 22 21 19 19 19 18 18 19 20 18 18 18 17 18 20 21 21 19 19 19 19 18 18 17 17 18 19 20 21 20 19 19 20 18
31 31 30 31 30 30 30 30 29 28 28 28 26 26 26 27 27 27 27 26 24 24 25 26 25 25 25 25 24 24 24 25 24 23 22 21 20 19 19 19 18 18 19 19 18 18 18 17 18 20 20 19 18 18 19 20 19 19 19 18 19 19 20 22 21 21 21 21 19
31 31 31 31 30 30 31 31 30 29 28 27 26 26 26 26 26 26 25 25 25 26 26 25 25 25 26 26 24 24 24 25 27 25 23 22 21 20 19 18 19 19 19 19 18 18 18 16 18 19 19 17 19 20 19 18 18 18 19 21 21 21 21 21 22 21 21 22 20
31 31 31 31 30 30 31 31 30 29 28 27 26 26 26 26 26 26 26 26 26 25 25 25 26 27 27 25 24 24 24 23 25 25 23 22 21 20 19 19 19 19 19 18 18 18 17 16 19 19 19 19 19 19 18 17 18 18 18 20 21 21 21 20 21 21 21 21 20
31 31 30 30 30 30 30 30 29 28 27 26 26 26 26 26 26 26 26 26 26 25 25 27 27 27 27 25 24 24 24 24 23 23 22 22 21 21 20 20 19 19 19 19 18 18 17 15 18 20 22 23 22 20 18 17 17 18 18 19 21 21 20 18 20 20 20 19 18
31 31 30 30 30 30 30 29 28 27 27 27 26 26 26 26 26 26 26 26 25 26 26 27 27 27 26 25 25 25 24 24 23 22 22 22 21 21 20 20 20 19 19 19 18 18 17 17 19 19 20 21 22 21 18 16 16 17 18 18 20 20 19 20 18 19 19 18 17
31 30 30 29 29 29 29 29 28 27 27 27 27 27 27 27 26 26 26 25 26 27 27 27 27 26 26 25 25 25 25 24 23 23 22 22 21 21 21 20 20 19 19 18 18 17 17 18 19 19 20 21 21 20 19 17 15 16 17 18 19 19 19 20 18 17 18 18 17
31 30 29 29 29 29 29 28 27 27 27 27 27 27 27 28 27 26 26 27 27 27 26 27 26 26 25 25 25 25 25 24 24 23 22 22 22 21 21 21 20 20 19 19 18 17 17 17 18 18 18 18 18 18 17 16 16 16 17 19 19 19 18 19 18 17 17 18 18
31 30 29 29 28 29 28 27 27 27 27 27 27 27 27 29 28 27 27 28 27 27 26 27 26 26 25 25 25 25 25 24 24 23 23 22 22 22 21 21 21 20 20 20 19 18 17 18 18 17 17 18 17 17 16 15 16 16 16 18 18 18 17 18 18 18 18 18 18
31 30 29 29 28 28 28 27 27 27 27 27 27 27 27 28 27 27 27 27 27 26 26 27 26 26 26 26 26 26 25 24 24 23 23 22 22 22 21 21 21 20 20 20 19 18 18 18 18 17 17 16 17 17 16 15 15 16 16 17 17 17 17 17 18 18 18 18 18
31 30 29 29 28 27 27 27 27 27 27 27 27 27 27 27 27 28 27 26 27 27 27 27 26 26 26 26 26 25 25 24 23 23 23 22 22 21 21 21 21 20 20 19 18 18 18 18 17 17 17 17 17 17 17 16 16 16 16 17 17 17 17 17 18 18 18 18 18
31 30 29 28 27 27 27 27 27 27 27 27 27 27 27 27 27 28 28 27 27 27 27 26 27 27 27 26 26 25 24 24 23 23 22 22 22 21 21 21 21 20 20 20 19 18 18 18 18 17 17 17 17 17 17 16 16 16 17 17 17 17 17 18 18 18 18 18 18
31 30 29 28 27 27 27 27 27 27 27 27 27 27 27 27 27 28 28 27 27 27 27 26 27 27 27 27 26 25 24 24 23 23 22 22 22 21 21 21 20 20 20 20 19 18 18 18 18 18 17 17 17 17 17 17 17 17 17 17 17 17 18 18 18 18 18 18 18
30 30 29 28 27 27 27 27 28 28 28 28 28 27 27 27 27 28 28 27 27 27 27 26 26 26 26 27 26 25 24 24 23 22 22 22 22 21 21 21 21 20 20 19 19 19 19 18 18 18 17 17 17 17 17 17 17 17 17 17 17 17 18 18 18 18 18 18 19
30 29 28 28 27 27 27 27 28 28 28 28 28 27 27 27 27 28 29 28 28 27 27 26 26 26 26 26 26 25 24 23 23 22 22 22 22 22 21 21 21 21 20 20 19 19 19 19 19 18 18 17 17 17 17 17 17 17 17 17 17 17 18 19 19 19 19 19 19
30 29 28 27 27 27 27 27 28 28 28 28 27 27 27 27 27 28 28 29 28 27 26 26 26 26 25 25 25 25 24 23 23 23 22 22 22 22 22 21 22 21 21 20 20 20 20 19 19 19 18 18 17 17 17 17 17 17 17 17 18 18 18 19 19 19 19 19 20
30 29 28 28 27 27 27 27 28 28 28 28 27 27 27 27 27 27 28 28 28 27 27 26 26 25 25 24 24 25 25 24 23 23 23 22 22 22 22 22 22 21 21 20 20 20 20 20 19 19 18 18 18 17 17 17 17 17 18 18 18 18 18 18 18 19 19 19 20
30 29 28 28 28 27 27 28 28 28 28 28 27 27 27 27 27 27 27 27 28 28 27 26 26 25 25 24 24 24 25 25 24 23 23 23 22 22 22 22 22 21 21 20 19 19 19 19 19 19 18 18 18 17 17 17 17 17 18 18 18 18 18 18 19 19 19 19 19
30 29 29 28 28 28 28 28 28 28 28 28 27 27 27 27 26 26 27 27 28 27 27 26 26 25 25 24 24 24 24 25 24 24 23 23 23 22 22 22 22 21 21 20 19 19 19 19 19 19 18 18 18 17 17 17 18 18 18 19 19 19 19 19 19 19 19 20 20
30 30 29 29 28 28 28 28 28 28 28 27 27 27 27 26 26 26 27 27 27 27 27 26 26 25 25 24 24 24 24 25 24 24 24 23 23 23 23 23 22 21 20 19 19 19 19 19 19 19 18 18 18 18 18 18 18 18 19 19 19 19 19 20 20 20 20 20 20
30 29 29 28 28 29 29 28 28 28 28 27 27 27 27 26 26 26 27 27 27 27 27 26 26 26 25 25 24 24 24 24 24 23 23 23 23 22 22 22 22 21 20 20 19 19 18 18 18 18 18 18 17 18 18 18 19 19 19 19 19 20 20 20 21 21 21 21 22
29 29 29 28 28 28 28 28 28 27 27 27 27 27 26 26 26 26 26 26 26 26 26 26 26 26 25 25 25 24 24 23 23 23 22 22 22 22 21 21 21 21 21 21 21 21 21 21 20 19 19 18 18 18 19 19 19 19 19 20 20 20 21 21 22 22 22 22 24
29 29 29 28 28 28 28 27 27 27 27 27 27 27 26 26 26 26 26 26 26 26 26 26 26 25 25 25 24 24 24 23 23 23 22 22 21 21 21 21 21 21 21 22 26 28 29 28 27 25 23 22 21 21 21 21 21 21 21 21 22 22 23 23 24 24 24 25 26
28 28 28 28 27 27 27 27 27 27 27 27 27 26 26 26 26 26 25 25 25 26 26 25 25 25 25 24 24 23 23 23 23 23 22 22 21 21 21 21 22 21 22 24 28 30 32 33 33 32 30 27 27 26 26 26 25 24 24 24 24 25 25 25 26 27 28 29 29
28 27 27 27 27 27 27 27 27 27 27 27 26 26 26 26 26 26 25 25 25 25 25 25 25 26 26 25 23 23 23 23 23 22 22 22 21 21 21 22 22 21 22 26 29 32 33 34 35 35 34 32 31 30 30 29 28 27 27 27 27 27 27 28 29 30 30 30 30
27 27 27 27 26 26 26 27 27 27 27 27 26 26 26 26 26 26 25 25 25 25 25 25 25 26 26 25 24 23 23 23 23 22 22 22 21 21 21 22 22 23 25 28 31 33 34 35 36 36 36 35 33 32 32 31 30 30 30 30 30 30 30 30 31 31 30 29 29
27 27 26 26 26 26 26 26 27 27 27 27 27 26 26 26 26 26 26 26 25 25 24 24 25 25 25 24 24 24 23 23 23 23 22 21 21 21 21 22 22 24 27 31 32 33 35 35 36 37 37 37 35 34 33 32 32 32 32 32 32 32 32 31 31 30 29 29 29
27 26 26 25 25 25 26 26 27 27 27 27 27 27 26 26 26 25 25 25 25 25 25 25 25 24 24 24 24 24 24 23 23 22 22 21 21 21 21 22 22 24 27 31 33 34 35 36 36 37 38 38 36 35 34 33 33 33 33 33 32 31 30 29 29 29 29 30 31
26 26 26 25 25 25 26 26 27 27 28 27 27 26 26 25 25 25 25 25 25 26 26 25 24 24 24 25 24 24 24 23 23 22 22 21 22 22 22 22 22 23 27 31 33 34 35 36 36 37 38 38 37 35 34 33 33 33 33 33 31 29 28 27 28 29 30 31 31
26 26 26 25 25 25 26 26 27 27 28 27 27 26 26 25 25 26 26 26 26 26 26 25 24 24 24 24 24 24 23 23 23 22 22 22 22 22 22 22 21 23 26 31 33 34 35 36 36 37 38 38 37 36 34 33 33 32 31 30 28 26 26 27 28 29 30 31 31
26 26 25 25 25 25 26 26 27 27 27 27 26 26 26 25 26 26 26 26 26 26 25 25 24 24 24 24 24 23 23 23 23 24 24 24 23 22 22 22 21 24 27 31 33 34 35 36 36 37 38 38 37 36 34 33 32 30 29 27 26 25 25 26 27 29 30 31 31
26 25 25 25 25 26 26 26 27 27 27 26 26 26 26 26 25 25 26 26 26 26 25 25 25 25 25 25 24 24 24 24 24 24 23 24 23 22 22 22 22 25 29 32 33 34 35 36 37 37 38 38 37 35 33 31 29 28 27 26 26 26 26 27 28 29 30 30 31
26 25 25 25 26 26 26 27 27 27 26 26 25 26 26 26 25 25 26 27 27 26 26 26 26 26 25 25 25 24 24 24 24 23 23 23 23 22 22 22 22 25 30 32 33 35 36 36 37 37 38 38 36 34 32 29 29 27 26 26 26 27 27 29 29 29 30 30 29
26 26 25 26 26 26 26 26 26 26 26 25 25 25 25 26 26 26 27 28 27 26 25 25 25 25 25 24 24 24 25 24 24 23 23 23 22 22 21 21 21 25 29 32 33 35 35 36 37 37 37 37 34 33 31 29 29 28 27 26 28 29 30 30 29 29 29 29 27
26 26 26 26 26 26 26 26 26 25 25 25 25 25 25 26 26 26 27 28 27 26 25 25 25 24 24 24 24 24 25 24 24 24 24 24 23 22 21 21 20 23 27 31 33 34 35 36 36 37 36 35 33 31 30 29 29 28 28 28 29 30 30 29 29 29 28 27 25
27 27 27 27 27 27 26 26 26 25 25 25 25 26 26 26 26 26 27 28 26 25 25 25 24 24 24 24 24 24 24 24 25 24 24 24 24 23 22 21 20 22 25 30 32 34 35 35 36 36 36 34 32 30 30 30 29 29 29 30 29 29 29 29 29 28 27 25 28
28 28 27 27 27 27 27 26 26 25 25 26 26 26 26 26 26 27 27 28 26 26 25 25 25 25 25 25 24 24 24 24 25 25 25 24 24 24 24 22 21 22 25 29 32 33 34 35 36 36 36 35 32 31 30 30 30 29 29 30 30 28 27 28 28 27 26 24 30
28 28 28 28 28 27 27 26 26 26 26 26 26 26 26 26 27 27 27 27 26 26 26 25 25 25 25 26 25 24 23 23 24 25 25 25 25 26 27 25 23 23 25 29 31 33 34 35 36 36 36 34 31 30 30 30 30 29 29 29 30 29 28 27 27 27 25 23 27
29 29 28 28 28 28 27 27 27 27 27 27 26 27 27 27 27 27 27 26 26 26 26 26 25 25 25 27 26 24 23 23 23 24 25 26 26 27 28 27 24 23 24 27 31 33 34 35 35 36 36 34 31 30 30 30 30 29 28 28 28 28 28 27 27 26 24 22 22
MSLP
1019.75 1019.91 1020.07 1020.23 1020.43 1020.63 1020.83 1021.03 1021.15 1021.31 1021.59 1021.83 1022.03 1022.27 1022.43 1022.71 1022.87 1023.07 1023.27 1023.43 1023.55 1023.67 1023.83 1023.99 1024.15 1024.39 1024.63 1024.87 1025.11 1025.31 1025.51 1025.63 1025.83 1025.91 1025.99 1026.11 1026.23 1026.35 1026.47 1026.59 1026.71 1026.79 1026.83 1026.87 1026.95 1026.99 1027.07 1027.15 1027.19 1027.23 1027.23 1027.15 1027.19 1027.23 1027.19 1027.15 1027.15 1027.15 1027.15 1027.11 1027.03 1026.99 1026.95 1026.99 1026.87 1026.83 1026.79 1026.75 1026.71
1019.31 1019.51 1019.71 1019.87 1020.07 1020.31 1020.59 1020.75 1020.91 1021.11 1021.27 1021.47 1021.59 1021.83 1022.07 1022.27 1022.47 1022.71 1022.91 1023.11 1023.15 1023.31 1023.47 1023.71 1023.91 1024.15 1024.43 1024.63 1024.83 1025.03 1025.23 1025.39 1025.59 1025.71 1025.79 1025.87 1025.99 1026.15 1026.27 1026.39 1026.43 1026.55 1026.63 1026.71 1026.75 1026.83 1026.87 1026.95 1027.03 1027.07 1027.03 1026.99 1026.99 1027.03 1026.99 1026.91 1026.95 1026.99 1026.91 1026.87 1026.83 1026.75 1026.75 1026.71 1026.63 1026.59 1026.55 1026.47 1026.43
1018.91 1019.19 1019.43 1019.59 1019.75 1019.99 1020.23 1020.43 1020.59 1020.75 1020.91 1021.15 1021.31 1021.51 1021.71 1021.91 1022.11 1022.31 1022.51 1022.71 1022.87 1023.03 1023.31 1023.51 1023.71 1023.95 1024.15 1024.43 1024.59 1024.79 1024.99 1025.15 1025.31 1025.43 1025.59 1025.71 1025.83 1025.95 1026.07 1026.19 1026.31 1026.35 1026.39 1026.47 1026.59 1026.63 1026.67 1026.71 1026.79 1026.83 1026.75 1026.75 1026.83 1026.83 1026.79 1026.71 1026.71 1026.75 1026.71 1026.67 1026.59 1026.59 1026.55 1026.43 1026.35 1026.31 1026.27 1026.19 1026.15
1018.63 1018.87 1019.07 1019.19 1019.31 1019.43 1019.63 1019.83 1020.07 1020.27 1020.51 1020.79 1021.03 1021.31 1021.47 1021.63 1021.83 1021.99 1022.23 1022.43 1022.71 1022.95 1023.07 1023.23 1023.51 1023.71 1023.91 1024.15 1024.35 1024.55 1024.71 1024.83 1025.03 1025.27 1025.43 1025.51 1025.63 1025.75 1025.87 1025.95 1026.03 1026.15 1026.19 1026.23 1026.31 1026.39 1026.43 1026.51 1026.59 1026.59 1026.55 1026.55 1026.59 1026.59 1026.59 1026.47 1026.51 1026.51 1026.43 1026.39 1026.35 1026.31 1026.31 1026.15 1026.07 1026.03 1025.99 1025.91 1025.87
1018.27 1018.43 1018.55 1018.63 1018.79 1018.95 1019.11 1019.31 1019.59 1019.87 1020.15 1020.47 1020.83 1021.07 1021.27 1021.43 1021.63 1021.83 1022.07 1022.35 1022.55 1022.67 1022.79 1022.99 1023.27 1023.47 1023.67 1023.87 1024.15 1024.31 1024.47 1024.59 1024.71 1024.95 1025.15 1025.31 1025.43 1025.55 1025.63 1025.75 1025.87 1025.95 1025.99 1026.07 1026.15 1026.19 1026.27 1026.35 1026.43 1026.39 1026.35 1026.35 1026.39 1026.35 1026.31 1026.31 1026.31 1026.31 1026.19 1026.11 1026.03 1026.03 1025.99 1025.91 1025.87 1025.79 1025.71 1025.63 1025.59
1017.71 1017.87 1018.07 1018.27 1018.43 1018.67 1018.87 1019.11 1019.31 1019.59 1019.91 1020.23 1020.55 1020.79 1020.99 1021.19 1021.39 1021.59 1021.83 1021.99 1022.15 1022.35 1022.59 1022.87 1023.07 1023.27 1023.43 1023.71 1023.91 1024.11 1024.31 1024.47 1024.59 1024.71 1024.87 1025.03 1025.15 1025.31 1025.43 1025.59 1025.63 1025.71 1025.79 1025.87 1025.91 1025.99 1026.07 1026.19 1026.15 1026.15 1026.15 1026.15 1026.15 1026.11 1026.07 1026.15 1026.15 1026.11 1025.99 1025.91 1025.83 1025.75 1025.71 1025.71 1025.63 1025.55 1025.47 1025.43 1025.35
1017.19 1017.51 1017.79 1017.99 1018.27 1018.47 1018.71 1018.91 1019.15 1019.43 1019.71 1019.99 1020.19 1020.39 1020.59 1020.79 1021.03 1021.23 1021.39 1021.59 1021.91 1022.19 1022.43 1022.59 1022.79 1022.99 1023.23 1023.47 1023.71 1023.87 1024.03 1024.23 1024.39 1024.55 1024.71 1024.83 1024.95 1025.11 1025.23 1025.31 1025.43 1025.47 1025.55 1025.59 1025.71 1025.79 1025.87 1025.99 1025.99 1025.95 1025.87 1025.87 1025.87 1025.83 1025.83 1025.87 1025.91 1025.87 1025.79 1025.67 1025.55 1025.47 1025.47 1025.43 1025.35 1025.31 1025.31 1025.19 1025.15
1016.99 1017.27 1017.51 1017.75 1018.03 1018.27 1018.47 1018.71 1018.95 1019.23 1019.51 1019.71 1019.87 1019.99 1020.15 1020.43 1020.63 1020.87 1021.15 1021.43 1021.71 1021.99 1022.15 1022.31 1022.55 1022.71 1022.91 1023.19 1023.43 1023.59 1023.79 1023.99 1024.15 1024.35 1024.51 1024.59 1024.75 1024.87 1024.99 1025.07 1025.15 1025.27 1025.31 1025.39 1025.43 1025.55 1025.63 1025.71 1025.71 1025.71 1025.71 1025.67 1025.63 1025.59 1025.59 1025.63 1025.67 1025.63 1025.55 1025.43 1025.31 1025.19 1025.19 1025.15 1025.15 1025.11 1025.07 1024.99 1024.87
1016.83 1017.03 1017.31 1017.55 1017.79 1017.99 1018.23 1018.47 1018.71 1018.99 1019.15 1019.31 1019.47 1019.63 1019.87 1020.15 1020.35 1020.63 1020.95 1021.19 1021.43 1021.67 1021.87 1022.03 1022.23 1022.43 1022.63 1022.87 1023.07 1023.31 1023.51 1023.71 1023.87 1024.11 1024.31 1024.43 1024.59 1024.67 1024.75 1024.87 1024.95 1024.99 1025.07 1025.15 1025.23 1025.31 1025.39 1025.43 1025.43 1025.43 1025.43 1025.43 1025.39 1025.35 1025.31 1025.39 1025.43 1025.39 1025.31 1025.19 1025.07 1024.99 1024.91 1024.91 1024.91 1024.87 1024.83 1024.75 1024.67
1016.47 1016.75 1017.07 1017.35 1017.59 1017.83 1018.07 1018.31 1018.55 1018.71 1018.87 1019.03 1019.23 1019.43 1019.67 1019.87 1020.15 1020.39 1020.63 1020.87 1021.11 1021.39 1021.59 1021.75 1021.99 1022.27 1022.47 1022.63 1022.83 1022.99 1023.19 1023.39 1023.59 1023.79 1023.99 1024.15 1024.31 1024.39 1024.47 1024.59 1024.63 1024.71 1024.79 1024.87 1024.95 1025.03 1025.15 1025.19 1025.23 1025.19 1025.15 1025.15 1025.15 1025.15 1025.15 1025.19 1025.23 1025.19 1025.07 1024.91 1024.83 1024.75 1024.71 1024.63 1024.63 1024.63 1024.59 1024.47 1024.35
1016.11 1016.43 1016.71 1016.99 1017.31 1017.59 1017.91 1018.23 1018.43 1018.59 1018.71 1018.87 1019.07 1019.31 1019.47 1019.63 1019.87 1020.07 1020.31 1020.59 1020.87 1021.15 1021.31 1021.51 1021.75 1021.99 1022.19 1022.39 1022.59 1022.71 1022.91 1023.15 1023.31 1023.55 1023.71 1023.87 1023.95 1024.03 1024.15 1024.27 1024.31 1024.39 1024.43 1024.55 1024.67 1024.79 1024.87 1024.95 1024.95 1024.95 1024.95 1024.91 1024.95 1024.99 1024.99 1024.99 1024.99 1024.95 1024.83 1024.67 1024.59 1024.59 1024.47 1024.39 1024.35 1024.35 1024.31 1024.15 1024.03
1015.87 1016.19 1016.47 1016.71 1017.07 1017.39 1017.71 1017.99 1018.15 1018.39 1018.59 1018.71 1018.87 1019.11 1019.27 1019.43 1019.59 1019.83 1020.11 1020.43 1020.63 1020.83 1021.03 1021.27 1021.47 1021.71 1021.95 1022.15 1022.27 1022.47 1022.67 1022.87 1023.07 1023.31 1023.43 1023.59 1023.71 1023.79 1023.87 1023.95 1023.99 1024.11 1024.15 1024.27 1024.39 1024.51 1024.59 1024.67 1024.71 1024.71 1024.71 1024.71 1024.71 1024.71 1024.75 1024.75 1024.71 1024.67 1024.59 1024.43 1024.39 1024.35 1024.23 1024.11 1024.07 1023.99 1023.95 1023.83 1023.71
1015.71 1015.99 1016.27 1016.59 1016.87 1017.19 1017.43 1017.67 1017.87 1018.11 1018.27 1018.43 1018.59 1018.83 1018.99 1019.15 1019.35 1019.59 1019.87 1020.15 1020.31 1020.55 1020.79 1021.07 1021.27 1021.43 1021.63 1021.83 1022.03 1022.23 1022.43 1022.59 1022.79 1022.99 1023.15 1023.31 1023.39 1023.51 1023.59 1023.67 1023.75 1023.83 1023.91 1023.99 1024.15 1024.27 1024.31 1024.39 1024.43 1024.43 1024.43 1024.43 1024.43 1024.43 1024.43 1024.43 1024.43 1024.39 1024.31 1024.19 1024.15 1024.07 1023.95 1023.79 1023.71 1023.67 1023.59 1023.55 1023.39
1015.59 1015.87 1016.11 1016.43 1016.71 1016.95 1017.15 1017.35 1017.55 1017.75 1017.95 1018.11 1018.27 1018.47 1018.71 1018.91 1019.15 1019.31 1019.55 1019.83 1019.99 1020.27 1020.55 1020.83 1020.99 1021.15 1021.31 1021.51 1021.71 1021.91 1022.15 1022.31 1022.55 1022.71 1022.87 1022.99 1023.11 1023.23 1023.31 1023.39 1023.47 1023.59 1023.67 1023.75 1023.87 1023.99 1024.03 1024.07 1024.11 1024.15 1024.15 1024.15 1024.15 1024.15 1024.15 1024.15 1024.15 1024.07 1023.99 1023.95 1023.87 1023.75 1023.63 1023.47 1023.43 1023.35 1023.31 1023.23 1023.03
1015.39 1015.59 1015.87 1016.15 1016.43 1016.67 1016.87 1017.03 1017.19 1017.39 1017.55 1017.75 1017.95 1018.15 1018.43 1018.71 1018.87 1019.07 1019.27 1019.51 1019.71 1019.99 1020.27 1020.55 1020.75 1020.91 1021.07 1021.27 1021.43 1021.63 1021.87 1022.07 1022.27 1022.43 1022.59 1022.71 1022.83 1022.95 1023.03 1023.11 1023.19 1023.31 1023.39 1023.47 1023.59 1023.67 1023.71 1023.75 1023.79 1023.87 1023.87 1023.87 1023.87 1023.87 1023.83 1023.87 1023.83 1023.75 1023.71 1023.63 1023.55 1023.43 1023.31 1023.19 1023.11 1023.03 1022.99 1022.87 1022.71
1015.15 1015.35 1015.63 1015.95 1016.15 1016.35 1016.51 1016.71 1016.83 1016.99 1017.19 1017.39 1017.59 1017.87 1018.15 1018.43 1018.59 1018.79 1018.99 1019.23 1019.51 1019.79 1020.03 1020.27 1020.43 1020.67 1020.87 1021.03 1021.23 1021.43 1021.63 1021.83 1021.99 1022.15 1022.27 1022.43 1022.51 1022.63 1022.75 1022.83 1022.91 1022.99 1023.11 1023.19 1023.31 1023.35 1023.43 1023.43 1023.51 1023.55 1023.59 1023.59 1023.59 1023.55 1023.55 1023.51 1023.51 1023.43 1023.39 1023.31 1023.23 1023.15 1023.03 1022.91 1022.83 1022.71 1022.59 1022.47 1022.39
1014.83 1015.07 1015.35 1015.63 1015.83 1015.99 1016.15 1016.27 1016.43 1016.63 1016.87 1017.03 1017.31 1017.59 1017.87 1018.07 1018.35 1018.55 1018.71 1018.99 1019.27 1019.55 1019.75 1019.99 1020.15 1020.39 1020.63 1020.83 1020.99 1021.19 1021.39 1021.59 1021.71 1021.87 1021.99 1022.11 1022.19 1022.31 1022.43 1022.51 1022.59 1022.67 1022.79 1022.91 1022.99 1023.07 1023.11 1023.15 1023.19 1023.27 1023.31 1023.31 1023.31 1023.27 1023.23 1023.19 1023.15 1023.15 1023.07 1022.99 1022.91 1022.87 1022.71 1022.59 1022.47 1022.35 1022.27 1022.15 1021.99
1014.55 1014.75 1014.99 1015.31 1015.43 1015.59 1015.71 1015.91 1016.11 1016.31 1016.55 1016.79 1017.07 1017.31 1017.59 1017.83 1018.07 1018.27 1018.43 1018.67 1018.95 1019.19 1019.43 1019.71 1019.91 1020.15 1020.31 1020.55 1020.71 1020.87 1021.07 1021.27 1021.39 1021.51 1021.59 1021.71 1021.87 1021.99 1022.11 1022.19 1022.27 1022.39 1022.47 1022.59 1022.67 1022.71 1022.75 1022.83 1022.87 1022.95 1022.99 1023.03 1023.03 1022.99 1022.95 1022.91 1022.87 1022.83 1022.75 1022.71 1022.63 1022.51 1022.39 1022.27 1022.15 1021.99 1021.91 1021.79 1021.59
1014.23 1014.47 1014.71 1014.91 1015.03 1015.23 1015.43 1015.67 1015.87 1016.11 1016.31 1016.59 1016.87 1017.15 1017.39 1017.59 1017.83 1018.03 1018.27 1018.47 1018.67 1018.87 1019.15 1019.43 1019.71 1019.87 1020.03 1020.19 1020.43 1020.59 1020.71 1020.87 1020.99 1021.15 1021.27 1021.43 1021.59 1021.71 1021.79 1021.87 1021.99 1022.07 1022.19 1022.27 1022.35 1022.43 1022.43 1022.51 1022.59 1022.67 1022.71 1022.71 1022.71 1022.71 1022.71 1022.63 1022.59 1022.51 1022.43 1022.39 1022.27 1022.15 1022.03 1021.91 1021.79 1021.67 1021.55 1021.43 1021.23
1013.95 1014.15 1014.35 1014.55 1014.71 1014.99 1015.31 1015.55 1015.75 1015.99 1016.23 1016.47 1016.71 1016.99 1017.23 1017.43 1017.63 1017.83 1018.03 1018.23 1018.43 1018.67 1018.91 1019.15 1019.43 1019.59 1019.71 1019.91 1020.15 1020.27 1020.39 1020.55 1020.71 1020.87 1020.99 1021.11 1021.27 1021.39 1021.47 1021.59 1021.67 1021.79 1021.87 1021.99 1022.07 1022.15 1022.19 1022.23 1022.31 1022.39 1022.43 1022.43 1022.43 1022.43 1022.39 1022.35 1022.27 1022.23 1022.15 1021.99 1021.91 1021.83 1021.67 1021.55 1021.43 1021.31 1021.15 1021.03 1020.87
1013.67 1013.87 1014.07 1014.35 1014.63 1014.95 1015.23 1015.43 1015.71 1015.99 1016.19 1016.43 1016.63 1016.87 1017.07 1017.31 1017.47 1017.63 1017.75 1017.91 1018.15 1018.43 1018.71 1018.91 1019.07 1019.23 1019.43 1019.63 1019.87 1019.99 1020.15 1020.23 1020.43 1020.59 1020.71 1020.87 1020.95 1021.03 1021.15 1021.27 1021.39 1021.51 1021.59 1021.71 1021.79 1021.87 1021.91 1021.99 1021.99 1022.07 1022.15 1022.15 1022.15 1022.15 1022.11 1022.03 1021.95 1021.87 1021.75 1021.67 1021.55 1021.43 1021.31 1021.15 1021.03 1020.91 1020.75 1020.59 1020.47
1013.51 1013.75 1014.03 1014.35 1014.63 1014.91 1015.15 1015.43 1015.67 1015.91 1016.15 1016.31 1016.47 1016.71 1016.91 1017.15 1017.31 1017.43 1017.59 1017.79 1017.99 1018.23 1018.43 1018.59 1018.71 1018.87 1019.07 1019.31 1019.55 1019.71 1019.91 1020.03 1020.19 1020.31 1020.43 1020.59 1020.63 1020.71 1020.87 1020.95 1021.11 1021.23 1021.31 1021.43 1021.55 1021.59 1021.63 1021.71 1021.71 1021.79 1021.83 1021.87 1021.83 1021.79 1021.75 1021.71 1021.63 1021.51 1021.39 1021.31 1021.15 1020.99 1020.87 1020.79 1020.63 1020.51 1020.35 1020.19 1020.11
1013.51 1013.83 1014.11 1014.35 1014.59 1014.83 1015.07 1015.31 1015.55 1015.75 1015.99 1016.15 1016.31 1016.51 1016.71 1016.87 1017.07 1017.27 1017.43 1017.67 1017.87 1017.99 1018.15 1018.27 1018.43 1018.59 1018.79 1018.99 1019.19 1019.43 1019.67 1019.87 1019.99 1020.11 1020.19 1020.27 1020.35 1020.47 1020.59 1020.71 1020.87 1020.95 1021.03 1021.11 1021.23 1021.31 1021.39 1021.43 1021.43 1021.47 1021.55 1021.59 1021.55 1021.47 1021.43 1021.35 1021.31 1021.15 1020.99 1020.87 1020.75 1020.63 1020.51 1020.35 1020.23 1020.07 1019.95 1019.79 1019.71
1013.55 1013.79 1013.99 1014.23 1014.47 1014.71 1014.91 1015.15 1015.31 1015.55 1015.71 1015.87 1016.07 1016.27 1016.43 1016.63 1016.87 1017.07 1017.27 1017.43 1017.59 1017.71 1017.87 1018.03 1018.23 1018.39 1018.59 1018.75 1018.99 1019.19 1019.43 1019.59 1019.71 1019.87 1019.99 1020.03 1020.15 1020.23 1020.35 1020.47 1020.59 1020.67 1020.75 1020.87 1020.91 1020.99 1021.07 1021.11 1021.15 1021.15 1021.15 1021.19 1021.15 1021.15 1021.03 1020.99 1020.87 1020.79 1020.67 1020.55 1020.43 1020.27 1020.11 1019.95 1019.79 1019.67 1019.51 1019.39 1019.27
1013.43 1013.63 1013.83 1013.99 1014.23 1014.43 1014.63 1014.87 1015.03 1015.19 1015.39 1015.59 1015.75 1015.99 1016.19 1016.39 1016.59 1016.83 1016.99 1017.15 1017.31 1017.47 1017.63 1017.79 1017.99 1018.19 1018.43 1018.59 1018.79 1018.99 1019.15 1019.31 1019.43 1019.55 1019.67 1019.79 1019.87 1019.99 1020.11 1020.23 1020.31 1020.35 1020.43 1020.55 1020.51 1020.47 1020.47 1020.51 1020.55 1020.59 1020.67 1020.67 1020.67 1020.59 1020.55 1020.47 1020.43 1020.35 1020.27 1020.15 1020.03 1019.87 1019.71 1019.47 1019.31 1019.15 1018.99 1018.87 1018.71
1013.19 1013.39 1013.55 1013.71 1013.95 1014.15 1014.35 1014.51 1014.71 1014.87 1015.03 1015.27 1015.47 1015.71 1015.91 1016.11 1016.31 1016.51 1016.71 1016.87 1017.03 1017.23 1017.43 1017.59 1017.79 1017.99 1018.19 1018.43 1018.59 1018.79 1018.91 1018.99 1019.11 1019.23 1019.31 1019.43 1019.59 1019.71 1019.83 1019.87 1019.99 1020.07 1020.15 1020.15 1020.11 1019.99 1019.99 1019.91 1019.87 1019.91 1019.99 1020.03 1020.03 1019.99 1019.91 1019.83 1019.79 1019.75 1019.71 1019.67 1019.59 1019.43 1019.27 1019.03 1018.83 1018.63 1018.43 1018.27 1018.15
1012.87 1013.07 1013.27 1013.43 1013.67 1013.87 1013.99 1014.15 1014.39 1014.59 1014.83 1015.03 1015.23 1015.43 1015.59 1015.83 1015.99 1016.23 1016.43 1016.63 1016.79 1016.99 1017.23 1017.43 1017.59 1017.75 1017.95 1018.19 1018.39 1018.51 1018.63 1018.71 1018.83 1018.91 1019.03 1019.15 1019.31 1019.43 1019.51 1019.59 1019.67 1019.75 1019.83 1019.79 1019.71 1019.67 1019.59 1019.55 1019.47 1019.43 1019.43 1019.43 1019.43 1019.39 1019.31 1019.19 1019.19 1019.19 1019.19 1019.15 1019.07 1018.95 1018.75 1018.59 1018.35 1018.15 1017.99 1017.87 1017.79
1012.55 1012.71 1012.95 1013.15 1013.39 1013.51 1013.71 1013.91 1014.15 1014.35 1014.51 1014.71 1014.87 1015.11 1015.31 1015.55 1015.75 1015.95 1016.15 1016.35 1016.59 1016.83 1017.03 1017.23 1017.43 1017.59 1017.71 1017.91 1018.07 1018.19 1018.27 1018.35 1018.51 1018.63 1018.75 1018.87 1018.99 1019.07 1019.15 1019.19 1019.31 1019.39 1019.43 1019.43 1019.31 1019.27 1019.23 1019.15 1019.15 1019.07 1018.99 1018.99 1018.99 1018.91 1018.87 1018.75 1018.75 1018.71 1018.71 1018.63 1018.51 1018.39 1018.27 1018.15 1017.95 1017.83 1017.71 1017.63 1017.59
1012.19 1012.43 1012.67 1012.87 1013.03 1013.23 1013.43 1013.63 1013.83 1013.99 1014.15 1014.39 1014.59 1014.87 1015.11 1015.31 1015.51 1015.67 1015.87 1016.07 1016.27 1016.55 1016.75 1016.95 1017.15 1017.35 1017.47 1017.59 1017.67 1017.79 1017.91 1018.07 1018.19 1018.35 1018.47 1018.59 1018.71 1018.79 1018.87 1018.91 1018.99 1019.03 1019.03 1018.99 1018.99 1018.91 1018.87 1018.87 1018.79 1018.71 1018.63 1018.59 1018.59 1018.55 1018.47 1018.43 1018.43 1018.39 1018.27 1018.19 1018.07 1017.99 1017.87 1017.79 1017.71 1017.63 1017.59 1017.47 1017.35
1011.91 1012.15 1012.35 1012.55 1012.71 1012.87 1013.11 1013.31 1013.43 1013.67 1013.91 1014.19 1014.43 1014.71 1014.91 1015.11 1015.27 1015.43 1015.59 1015.83 1015.99 1016.15 1016.35 1016.59 1016.83 1016.99 1017.07 1017.15 1017.31 1017.47 1017.63 1017.79 1017.91 1018.07 1018.19 1018.31 1018.39 1018.43 1018.51 1018.59 1018.71 1018.71 1018.71 1018.71 1018.63 1018.59 1018.59 1018.55 1018.47 1018.43 1018.35 1018.27 1018.27 1018.23 1018.19 1018.15 1018.07 1017.99 1017.95 1017.87 1017.75 1017.71 1017.71 1017.71 1017.63 1017.55 1017.43 1017.31 1017.15
1011.67 1011.87 1011.99 1012.19 1012.43 1012.59 1012.75 1012.95 1013.19 1013.43 1013.71 1013.99 1014.23 1014.43 1014.63 1014.83 1014.99 1015.11 1015.27 1015.43 1015.59 1015.79 1015.99 1016.27 1016.43 1016.59 1016.63 1016.75 1016.95 1017.15 1017.31 1017.43 1017.59 1017.75 1017.87 1017.95 1017.99 1018.07 1018.15 1018.27 1018.39 1018.43 1018.43 1018.43 1018.39 1018.31 1018.27 1018.27 1018.23 1018.15 1018.03 1017.99 1017.95 1017.91 1017.87 1017.83 1017.79 1017.71 1017.67 1017.59 1017.59 1017.59 1017.59 1017.59 1017.47 1017.39 1017.27 1017.11 1016.95
1011.43 1011.59 1011.75 1011.95 1012.15 1012.27 1012.51 1012.75 1012.99 1013.27 1013.51 1013.71 1013.91 1014.11 1014.31 1014.51 1014.63 1014.79 1014.95 1015.11 1015.31 1015.55 1015.75 1015.95 1016.07 1016.19 1016.31 1016.51 1016.67 1016.83 1016.99 1017.15 1017.31 1017.43 1017.51 1017.59 1017.71 1017.79 1017.87 1017.99 1018.15 1018.19 1018.19 1018.15 1018.07 1018.03 1017.99 1017.99 1017.91 1017.87 1017.83 1017.71 1017.63 1017.59 1017.59 1017.55 1017.47 1017.43 1017.43 1017.43 1017.43 1017.47 1017.47 1017.39 1017.31 1017.15 1017.03 1016.91 1016.75
1011.23 1011.39 1011.55 1011.71 1011.87 1012.07 1012.27 1012.55 1012.75 1012.99 1013.23 1013.43 1013.59 1013.79 1013.99 1014.19 1014.39 1014.59 1014.71 1014.87 1015.03 1015.23 1015.35 1015.51 1015.63 1015.79 1015.99 1016.15 1016.35 1016.55 1016.71 1016.83 1016.95 1017.03 1017.15 1017.27 1017.39 1017.55 1017.67 1017.71 1017.83 1017.87 1017.87 1017.83 1017.83 1017.75 1017.71 1017.71 1017.67 1017.59 1017.51 1017.43 1017.35 1017.31 1017.31 1017.27 1017.27 1017.27 1017.27 1017.31 1017.27 1017.27 1017.23 1017.19 1017.11 1016.99 1016.83 1016.71 1016.55
1010.99 1011.15 1011.31 1011.43 1011.63 1011.87 1012.11 1012.27 1012.51 1012.71 1012.91 1013.15 1013.31 1013.51 1013.71 1013.91 1014.15 1014.27 1014.43 1014.59 1014.71 1014.83 1014.95 1015.07 1015.19 1015.35 1015.51 1015.71 1015.95 1016.15 1016.31 1016.47 1016.63 1016.75 1016.87 1016.99 1017.11 1017.23 1017.35 1017.43 1017.47 1017.51 1017.55 1017.55 1017.47 1017.43 1017.43 1017.39 1017.35 1017.31 1017.23 1017.15 1017.11 1017.07 1017.03 1017.07 1017.11 1017.11 1017.15 1017.11 1017.07 1017.03 1016.99 1016.95 1016.87 1016.75 1016.63 1016.43 1016.31
1010.71 1010.91 1011.07 1011.23 1011.43 1011.59 1011.83 1012.03 1012.23 1012.43 1012.63 1012.87 1013.03 1013.23 1013.43 1013.59 1013.71 1013.87 1013.99 1014.11 1014.31 1014.51 1014.67 1014.79 1014.95 1015.11 1015.31 1015.47 1015.67 1015.87 1016.03 1016.19 1016.31 1016.47 1016.59 1016.71 1016.87 1016.95 1016.99 1017.07 1017.15 1017.15 1017.19 1017.19 1017.15 1017.15 1017.15 1017.11 1017.07 1017.03 1016.99 1016.95 1016.91 1016.87 1016.87 1016.91 1016.91 1016.95 1016.91 1016.91 1016.87 1016.83 1016.75 1016.71 1016.59 1016.51 1016.35 1016.19 1016.11
1010.35 1010.59 1010.75 1010.99 1011.15 1011.35 1011.51 1011.71 1011.91 1012.15 1012.31 1012.51 1012.67 1012.87 1013.03 1013.19 1013.31 1013.43 1013.55 1013.71 1013.95 1014.19 1014.39 1014.59 1014.79 1014.99 1015.15 1015.31 1015.47 1015.63 1015.75 1015.87 1016.03 1016.19 1016.35 1016.43 1016.59 1016.71 1016.71 1016.75 1016.87 1016.95 1016.95 1016.87 1016.87 1016.87 1016.87 1016.87 1016.83 1016.79 1016.79 1016.75 1016.71 1016.71 1016.75 1016.75 1016.71 1016.71 1016.71 1016.71 1016.63 1016.55 1016.47 1016.43 1016.31 1016.23 1016.07 1015.95 1015.91
1009.99 1010.23 1010.43 1010.71 1010.87 1011.03 1011.19 1011.39 1011.59 1011.79 1011.95 1012.07 1012.23 1012.43 1012.59 1012.75 1012.95 1013.15 1013.31 1013.47 1013.71 1013.87 1014.07 1014.27 1014.51 1014.71 1014.87 1014.99 1015.15 1015.31 1015.43 1015.59 1015.75 1015.91 1016.03 1016.15 1016.27 1016.35 1016.43 1016.47 1016.59 1016.71 1016.71 1016.67 1016.67 1016.63 1016.59 1016.59 1016.63 1016.59 1016.59 1016.59 1016.55 1016.59 1016.59 1016.59 1016.55 1016.51 1016.51 1016.47 1016.39 1016.27 1016.19 1016.15 1016.03 1015.95 1015.87 1015.75 1015.71
1009.67 1009.87 1010.11 1010.35 1010.51 1010.67 1010.87 1011.03 1011.19 1011.31 1011.43 1011.59 1011.75 1011.91 1012.11 1012.31 1012.59 1012.79 1012.99 1013.15 1013.31 1013.51 1013.71 1013.95 1014.15 1014.31 1014.43 1014.63 1014.83 1014.99 1015.15 1015.39 1015.55 1015.67 1015.79 1015.87 1015.91 1015.99 1016.15 1016.23 1016.31 1016.43 1016.47 1016.43 1016.43 1016.43 1016.43 1016.39 1016.39 1016.39 1016.39 1016.39 1016.39 1016.35 1016.35 1016.35 1016.35 1016.31 1016.27 1016.19 1016.15 1016.03 1015.99 1015.87 1015.79 1015.71 1015.67 1015.59 1015.43
1009.31 1009.51 1009.71 1009.91 1010.11 1010.27 1010.43 1010.59 1010.71 1010.83 1010.91 1011.11 1011.31 1011.55 1011.71 1011.95 1012.15 1012.35 1012.59 1012.75 1012.99 1013.15 1013.39 1013.63 1013.79 1013.95 1014.15 1014.39 1014.63 1014.87 1015.03 1015.15 1015.31 1015.39 1015.47 1015.59 1015.59 1015.71 1015.83 1015.95 1016.03 1016.15 1016.23 1016.23 1016.19 1016.19 1016.19 1016.15 1016.15 1016.11 1016.11 1016.11 1016.15 1016.15 1016.15 1016.15 1016.15 1016.07 1015.99 1015.95 1015.87 1015.83 1015.75 1015.67 1015.59 1015.55 1015.47 1015.43 1015.15
1008.91 1009.15 1009.31 1009.51 1009.67 1009.87 1010.03 1010.15 1010.23 1010.35 1010.51 1010.71 1010.99 1011.23 1011.39 1011.59 1011.75 1011.99 1012.27 1012.51 1012.71 1012.95 1013.15 1013.31 1013.47 1013.71 1013.95 1014.19 1014.43 1014.67 1014.87 1014.99 1015.07 1015.15 1015.15 1015.27 1015.35 1015.43 1015.51 1015.59 1015.71 1015.87 1015.91 1015.95 1015.95 1015.91 1015.91 1015.91 1015.91 1015.87 1015.87 1015.87 1015.95 1015.99 1015.99 1015.99 1015.91 1015.87 1015.83 1015.75 1015.71 1015.63 1015.55 1015.43 1015.39 1015.31 1015.31 1015.27 1015.11
1008.59 1008.79 1008.99 1009.15 1009.31 1009.51 1009.67 1009.75 1009.87 1010.03 1010.27 1010.47 1010.71 1010.87 1011.03 1011.31 1011.59 1011.83 1012.11 1012.35 1012.55 1012.71 1012.91 1013.11 1013.31 1013.55 1013.75 1013.95 1014.15 1014.43 1014.59 1014.75 1014.87 1014.91 1014.95 1014.99 1015.11 1015.15 1015.19 1015.31 1015.43 1015.55 1015.63 1015.71 1015.71 1015.71 1015.71 1015.67 1015.71 1015.67 1015.67 1015.71 1015.75 1015.79 1015.79 1015.79 1015.71 1015.63 1015.59 1015.55 1015.51 1015.47 1015.39 1015.31 1015.19 1015.15 1015.15 1015.11 1015.07
Wind_Speed
11 10 9 9 9 8 8 7 7 7 7 7 7 8 8 8 8 7 7 6 7 7 6 6 6 6 6 7 8 9 8 8 8 8 9 8 7 7 7 6 6 6 6 6 6 5 5 5 4 4 3 4 4 4 4 4 5 5 5 6 5 5 5 7 7 7 8 8 6
13 12 11 10 10 8 7 7 7 7 7 7 7 7 8 7 8 7 7 7 7 6 6 5 6 6 7 8 9 9 9 8 9 8 8 8 7 7 7 6 6 6 6 6 6 5 4 4 4 4 3 4 4 4 5 5 5 5 6 7 5 5 5 6 7 7 7 7 6
13 12 11 11 10 9 8 8 8 8 8 7 7 7 7 7 7 7 7 7 6 6 5 5 6 7 8 8 8 8 8 8 8 8 7 7 7 7 7 6 6 6 6 6 6 5 5 5 4 4 4 4 4 4 5 5 5 5 6 7 5 4 5 6 6 6 5 5 6
13 13 13 13 13 13 12 10 10 10 10 8 7 6 7 6 6 6 6 6 6 5 5 5 6 7 8 8 8 8 8 8 8 8 7 7 7 7 7 6 6 6 6 6 6 6 6 5 4 4 4 4 5 5 5 5 4 5 5 5 4 4 5 5 5 5 5 5 5
14 14 14 14 15 14 13 11 11 11 9 7 7 6 6 6 5 5 5 6 6 7 7 6 6 7 7 8 8 8 8 8 9 8 7 7 7 7 7 7 7 7 6 6 6 6 6 5 4 4 4 4 4 5 5 5 5 5 4 4 4 4 5 5 5 5 4 5 5
15 15 14 13 14 13 11 10 11 10 9 7 8 8 8 7 6 6 7 7 7 7 8 8 7 7 8 8 8 8 8 7 8 7 7 7 6 6 6 7 7 7 6 6 6 6 6 5 4 4 4 4 5 5 6 6 6 5 5 5 5 4 4 5 5 4 5 6 6
15 15 14 13 13 12 11 10 9 9 8 8 10 11 11 9 9 9 9 8 7 7 8 8 8 8 8 8 8 8 7 7 7 7 7 7 6 6 7 7 7 7 6 6 6 6 6 5 4 4 5 5 5 5 6 6 6 6 6 6 5 5 4 5 4 4 5 7 8
14 14 14 14 13 13 12 11 10 9 9 8 11 12 13 12 11 11 10 8 7 7 8 8 9 9 9 9 8 8 8 7 7 7 7 7 7 7 7 7 7 7 7 6 6 6 6 5 4 4 4 4 4 5 5 6 6 6 7 7 6 5 5 5 4 5 6 8 9
12 13 13 13 13 13 12 11 11 10 10 10 12 12 13 12 12 11 10 8 8 8 8 8 9 9 9 9 9 8 8 8 8 7 7 7 7 7 7 7 7 7 7 6 6 7 6 5 4 4 4 5 5 5 5 6 6 7 7 7 6 6 5 6 5 6 7 8 9
13 13 13 12 13 12 12 11 11 11 11 11 12 12 12 13 12 11 10 8 8 8 8 8 9 9 9 9 9 9 8 8 8 8 8 8 8 8 8 7 7 7 7 6 6 6 6 5 5 5 5 5 6 6 6 6 7 7 8 6 6 7 7 6 6 7 7 8 10
14 13 13 13 13 12 12 11 10 10 11 11 11 11 11 12 12 11 9 8 8 9 10 9 9 10 10 9 9 9 8 8 7 7 8 8 8 8 8 8 7 7 7 6 6 5 5 5 5 6 6 6 6 7 7 7 7 8 8 7 8 8 8 8 8 7 8 9 10
13 13 13 12 12 12 12 11 10 10 11 11 11 11 11 11 11 11 10 9 10 10 10 9 10 10 10 8 8 8 8 8 8 8 8 8 8 8 8 8 8 8 7 7 6 5 5 5 6 7 7 7 6 6 7 7 8 8 9 9 9 9 10 10 9 8 8 8 9
13 12 12 12 12 12 12 12 11 10 11 12 11 11 10 10 11 11 11 11 11 10 9 9 10 10 9 9 8 8 8 8 8 8 8 8 8 8 8 8 8 8 7 7 6 5 5 6 7 8 8 8 7 7 7 7 8 9 9 10 10 10 10 11 10 9 8 9 10
12 12 12 12 12 12 12 12 11 11 11 12 12 11 10 9 10 11 11 11 11 10 9 9 9 9 9 9 9 9 9 8 8 8 8 8 8 8 8 8 8 7 7 6 6 6 7 7 8 8 8 9 9 8 8 8 8 9 9 10 10 11 11 11 10 10 9 10 11
12 12 12 12 13 13 12 13 11 11 11 12 11 11 10 9 10 11 11 11 10 9 9 9 8 9 9 9 9 9 9 9 9 9 9 9 8 8 8 8 8 7 7 6 6 7 7 8 8 8 8 9 9 9 9 8 9 9 9 10 11 11 11 11 11 10 10 11 11
13 13 13 13 13 13 13 13 11 10 11 12 11 11 10 9 9 10 11 11 10 9 8 9 9 8 8 9 9 9 9 9 9 9 9 9 8 8 8 8 8 8 7 7 7 7 7 8 8 8 9 9 9 9 9 9 9 9 10 10 11 11 12 12 12 11 11 11 12
13 13 13 14 14 14 14 13 11 10 11 11 11 11 10 9 9 10 11 11 10 9 9 10 9 8 8 9 9 9 9 8 9 9 9 9 9 9 9 8 8 8 8 8 8 8 8 8 8 8 8 9 9 9 9 9 9 10 10 11 11 12 12 13 13 12 12 12 13
14 14 14 14 15 16 15 14 12 11 11 12 12 11 10 10 10 10 11 11 11 11 11 11 10 9 9 9 9 9 8 9 9 9 9 9 9 9 9 9 8 8 8 8 8 8 8 8 8 8 8 8 9 9 9 9 9 10 10 11 11 12 12 13 13 12 12 12 13
14 14 15 15 16 16 15 15 13 12 11 11 11 11 10 11 11 11 10 11 11 12 12 11 10 10 10 10 9 9 9 9 9 10 9 9 9 9 9 9 8 8 8 8 8 8 8 8 8 8 8 8 8 9 9 9 9 10 10 11 12 12 13 13 13 13 12 13 13
15 15 15 16 15 15 14 14 13 12 11 10 10 11 11 11 11 11 11 11 12 12 12 12 11 11 10 10 10 10 9 9 9 9 9 9 9 9 9 8 8 8 8 8 8 8 8 8 8 8 8 8 9 9 9 9 9 10 11 11 11 12 13 13 13 13 13 13 13
15 15 15 14 13 13 12 12 11 10 10 9 10 11 11 11 12 12 12 12 12 12 12 12 12 12 11 11 11 10 9 8 8 9 9 9 9 9 9 8 8 8 7 7 7 7 8 8 8 8 8 8 9 9 9 9 10 11 11 11 11 12 13 13 13 13 13 13 13
13 13 12 11 11 11 11 10 10 10 10 10 10 11 11 12 12 12 12 11 11 12 12 13 13 12 12 12 11 11 9 8 8 8 9 9 9 9 8 8 8 7 7 7 7 7 7 8 8 8 8 8 9 10 10 10 10 11 12 12 12 13 13 13 13 13 13 13 13
11 10 10 10 10 11 11 10 10 10 10 10 11 11 12 12 12 11 11 11 11 12 12 12 12 12 12 11 11 10 9 8 8 8 8 8 8 8 8 7 7 7 8 7 7 7 7 7 7 8 8 8 9 10 11 11 11 11 12 12 13 13 13 13 13 13 13 13 13
9 9 9 8 10 11 11 11 11 11 11 12 12 12 12 12 12 11 11 11 12 12 12 10 10 10 10 10 10 10 10 9 9 9 9 8 8 8 7 7 7 7 7 6 7 8 8 7 7 7 8 8 9 10 10 11 11 11 12 12 13 13 13 13 13 13 13 13 13
9 9 9 9 10 11 11 12 12 13 13 12 12 12 12 12 12 12 12 12 12 12 12 10 10 9 9 9 9 9 10 10 10 10 10 9 8 8 7 6 7 6 6 7 11 13 14 12 10 8 8 8 9 10 10 11 12 12 12 12 13 13 13 14 13 13 13 13 13
10 10 11 11 11 12 12 13 13 13 13 13 12 13 13 13 12 12 13 13 13 12 12 11 10 9 9 8 9 9 9 9 10 10 10 9 9 8 7 7 6 6 6 9 13 16 17 18 16 14 11 9 9 10 10 11 12 12 12 13 12 13 13 13 13 13 12 12 11
10 11 11 11 12 13 13 13 13 13 13 13 13 13 13 13 12 12 13 13 12 12 11 10 9 10 10 8 9 10 10 9 9 10 10 9 9 9 8 7 6 6 7 11 15 17 18 19 19 18 15 11 10 9 9 9 9 10 11 11 12 12 13 13 14 13 12 10 9
12 12 12 12 13 13 13 13 13 13 14 14 14 14 13 13 13 13 13 13 12 11 10 9 8 8 8 7 9 11 11 10 10 9 9 9 9 9 9 8 7 7 9 14 16 17 18 18 19 19 18 15 11 9 9 8 8 8 9 10 11 12 12 12 11 10 8 7 7
12 12 12 13 13 13 13 14 14 15 14 14 14 13 13 13 13 13 13 12 12 11 10 8 8 7 7 8 10 11 11 11 10 9 8 9 9 9 9 8 8 9 12 16 17 18 18 18 19 19 19 18 12 9 7 7 7 8 8 9 9 9 9 8 7 7 7 8 8
12 13 13 14 14 14 14 14 15 14 14 13 13 13 13 13 13 13 13 13 13 12 10 9 8 9 9 10 10 10 10 10 9 9 9 9 10 9 9 9 9 9 12 16 17 18 18 18 19 19 19 19 15 11 8 7 7 8 8 8 7 7 6 6 7 8 9 9 9
12 13 13 14 14 14 14 14 14 14 13 12 13 14 14 14 14 14 14 13 13 12 11 10 10 11 12 11 10 10 10 9 9 9 9 10 10 10 10 9 9 10 12 16 17 18 18 18 18 19 19 19 16 11 8 7 8 8 7 7 6 6 6 7 8 9 10 10 11
13 13 13 14 14 14 14 13 13 13 13 13 14 14 14 14 14 14 13 13 12 12 12 12 12 12 12 11 10 10 10 10 10 10 10 10 10 10 9 9 9 10 12 16 17 18 18 18 18 19 19 19 16 12 9 8 8 7 6 6 6 7 7 7 7 9 10 11 11
13 13 14 14 14 14 13 13 13 14 14 14 14 15 15 14 13 13 12 12 12 12 13 13 14 13 13 12 12 11 11 11 11 11 11 11 10 9 9 9 8 10 13 16 17 17 18 18 18 18 19 19 16 12 9 8 6 5 5 5 6 7 8 8 8 9 10 11 11
13 13 14 14 14 14 13 14 14 14 14 14 15 15 15 14 13 13 13 12 12 12 13 13 13 13 13 12 12 12 11 11 11 11 11 10 10 10 9 9 7 9 13 16 16 17 17 18 18 18 18 18 14 10 7 6 5 4 5 6 6 7 8 8 9 10 11 11 10
14 14 14 14 14 14 14 14 14 15 15 15 15 15 15 14 15 14 14 14 13 12 11 12 12 11 10 10 10 11 11 11 10 10 10 10 9 10 10 9 8 10 13 16 16 17 17 17 17 18 17 16 11 8 6 5 5 5 6 7 8 8 9 9 9 9 10 10 10
15 15 15 15 15 15 15 15 15 15 15 16 16 15 15 15 15 14 14 14 13 12 12 11 11 10 10 9 9 10 11 11 11 10 10 10 10 10 10 10 9 11 14 16 16 17 17 17 17 17 16 13 8 6 5 5 5 6 6 7 9 10 10 9 9 9 9 9 8
15 16 16 16 16 16 16 16 16 16 17 17 17 16 16 16 15 14 13 13 13 12 12 12 11 11 11 11 10 11 11 11 10 10 10 10 11 10 10 10 9 10 13 15 16 16 16 16 16 16 14 11 7 5 4 5 5 5 7 8 9 9 9 8 8 8 8 8 8
16 16 16 16 16 17 17 17 17 18 18 18 17 17 16 16 14 14 13 13 12 12 12 12 12 12 12 12 11 11 10 10 11 11 11 11 11 10 10 9 9 9 11 14 15 16 16 16 16 15 14 9 6 5 4 5 5 5 6 7 7 8 7 7 6 7 7 8 10
16 17 17 17 17 17 17 17 18 19 19 18 17 17 16 15 14 13 13 13 12 12 12 12 13 12 12 12 10 9 9 10 11 11 11 11 11 11 11 10 9 9 10 13 14 15 15 15 16 15 14 10 7 5 4 5 5 6 7 7 7 7 7 7 6 6 6 8 11
16 17 17 17 17 17 17 18 19 18 18 17 17 16 16 15 13 12 12 11 10 11 11 11 12 11 11 11 10 9 9 9 10 11 11 11 11 12 13 11 9 9 10 12 14 15 15 15 15 15 14 10 6 5 4 5 6 7 7 6 7 7 6 6 6 5 5 6 9
15 16 17 17 17 17 17 18 18 17 16 16 16 15 14 14 12 11 11 10 10 10 10 10 10 10 10 11 10 9 10 10 10 11 11 12 11 12 13 11 9 8 9 10 13 14 15 15 15 15 14 10 6 5 5 5 6 7 7 6 6 6 6 6 5 5 5 5 5
Wind_Direction
196 195 194 192 191 191 193 196 195 192 188 185 187 187 186 186 190 191 191 190 194 196 195 192 190 186 181 178 181 186 192 195 197 201 204 204 203 204 206 209 210 211 214 219 220 221 222 218 218 224 231 232 233 235 236 234 230 231 232 234 237 238 238 239 244 244 243 241 242
197 196 195 194 192 191 190 192 194 192 190 189 188 186 185 186 189 189 189 191 194 193 189 186 182 178 177 180 182 186 190 195 196 200 204 206 205 205 206 210 211 212 213 217 218 220 221 216 215 221 230 233 232 235 236 233 226 229 233 235 239 240 241 243 245 245 244 243 241
197 195 194 194 192 190 189 191 193 192 190 190 188 185 184 186 188 188 188 190 188 184 181 182 178 177 177 180 183 186 190 192 194 198 202 206 206 206 207 211 213 216 218 218 216 218 220 213 213 221 229 234 229 232 237 235 225 226 232 234 237 240 243 247 247 244 243 244 239
196 195 195 197 195 193 192 192 191 191 189 186 182 182 183 186 186 185 182 178 177 180 182 180 176 177 179 180 183 187 191 193 193 196 201 206 206 207 209 211 214 217 220 218 218 220 220 213 216 224 231 234 231 234 238 238 229 230 233 234 236 237 241 249 249 247 246 248 241
198 197 197 198 197 196 194 192 190 188 186 179 177 179 183 183 183 177 173 173 183 187 185 175 173 176 180 181 183 187 191 196 198 199 201 205 207 208 208 209 214 217 219 218 218 219 219 211 218 226 231 232 235 239 240 237 235 237 241 244 241 239 241 248 249 249 249 251 248
199 199 199 200 198 197 196 193 189 186 181 175 176 179 182 183 182 181 182 184 186 183 177 173 175 178 180 180 183 186 190 195 199 199 200 204 207 208 209 211 214 216 217 217 218 218 215 209 220 228 230 229 235 238 237 233 235 239 244 249 246 244 243 246 249 250 251 253 254
198 198 199 199 197 197 196 193 187 181 176 174 179 183 184 183 183 184 185 183 177 174 175 178 180 181 180 179 183 187 190 194 198 199 200 204 208 209 211 214 214 215 216 216 217 216 213 205 218 230 237 236 240 236 229 223 227 234 242 247 247 245 243 244 247 251 253 253 254
197 197 198 198 196 196 195 190 183 179 178 181 185 187 186 183 183 182 181 176 174 176 178 181 182 181 179 179 183 187 189 191 196 199 202 205 209 212 214 215 216 217 217 216 215 215 213 207 217 227 234 238 244 240 231 221 223 231 241 247 251 250 247 247 247 249 251 253 254
196 197 197 196 195 195 193 189 184 182 184 188 189 188 186 183 181 179 178 178 178 178 178 181 181 180 179 180 183 186 188 191 195 199 202 204 208 211 214 215 217 219 219 215 214 213 213 213 221 226 230 233 240 242 238 227 228 235 243 250 254 255 252 250 247 247 249 252 255
196 195 194 194 195 194 191 188 187 186 187 190 189 187 185 184 182 180 180 181 177 176 178 181 178 178 180 183 185 187 188 190 194 197 201 204 207 210 212 214 215 217 219 215 212 209 210 214 224 229 232 232 238 242 243 238 237 242 247 253 256 257 256 253 249 248 249 253 255
195 193 191 192 192 190 188 187 189 190 191 192 188 186 185 185 183 181 179 175 174 178 181 181 177 178 181 186 187 188 189 189 192 196 200 205 208 210 211 212 212 214 216 215 208 205 206 214 224 230 234 236 236 241 244 243 242 245 249 254 256 258 258 257 253 250 250 252 255
195 192 190 190 188 186 185 187 189 191 192 193 189 187 186 187 183 179 175 173 178 181 183 179 178 180 183 186 188 189 189 189 192 196 200 206 208 210 211 212 212 213 214 214 207 203 206 216 224 231 236 239 238 239 241 240 242 245 250 254 254 256 258 258 255 252 251 252 255
194 190 188 187 184 184 186 189 191 192 193 194 190 188 187 187 181 176 175 177 181 182 181 179 180 182 184 186 187 187 188 189 191 196 202 206 208 209 211 213 213 214 214 214 208 206 210 219 224 231 237 242 242 241 240 238 240 245 250 254 255 256 257 258 256 255 254 254 257
192 189 187 185 183 184 187 191 192 193 193 194 192 188 186 185 180 178 177 180 182 180 178 178 181 185 187 186 186 186 187 188 191 196 202 207 208 208 210 213 212 213 214 214 209 208 213 221 225 230 236 242 245 244 242 238 241 244 249 253 255 257 258 259 258 257 256 256 258
192 190 187 183 183 186 190 192 194 194 194 195 192 188 183 181 181 180 179 181 181 179 176 176 182 186 188 187 186 186 186 187 191 196 203 208 208 208 210 212 212 212 213 214 212 212 215 221 226 231 236 242 246 246 245 242 242 244 247 250 253 256 258 260 260 259 258 257 260
194 191 187 184 186 189 192 194 195 194 193 194 190 185 182 180 180 180 180 180 179 177 176 178 181 183 185 187 186 185 185 188 192 197 202 208 208 209 210 212 213 213 213 215 217 218 220 222 226 230 234 240 245 247 247 245 245 246 247 249 252 254 257 259 259 259 258 257 259
195 192 189 187 190 193 194 195 195 194 193 192 187 184 181 179 179 180 181 180 177 177 179 181 180 180 182 187 186 185 186 190 195 200 203 207 208 209 210 212 213 213 213 215 219 223 225 226 227 229 232 238 243 246 248 247 247 248 249 250 252 253 255 257 258 258 258 258 259
196 194 191 191 194 195 196 196 195 194 192 189 185 183 181 177 177 180 181 180 178 178 180 181 180 181 182 186 186 186 188 192 198 202 205 207 207 209 210 213 214 214 213 215 220 224 228 230 230 231 233 237 242 245 247 248 249 250 250 251 252 253 254 256 256 256 257 257 258
197 195 194 196 197 197 197 196 196 194 190 186 183 181 179 178 177 178 179 179 179 179 179 179 181 184 185 186 187 189 191 194 199 202 205 205 207 208 211 214 215 215 215 216 221 226 229 232 233 234 236 239 242 245 246 247 249 251 252 253 253 254 254 254 254 254 254 254 256
199 198 198 198 198 197 197 197 195 193 189 184 180 179 179 178 177 177 178 180 180 179 179 180 183 186 188 188 188 192 195 196 198 202 204 204 206 209 211 213 215 216 216 217 222 226 230 233 235 236 238 240 244 247 248 249 251 252 253 254 254 254 254 254 253 253 253 252 254
202 201 200 198 197 197 196 196 193 190 186 181 179 179 179 178 178 179 180 179 178 178 180 184 187 188 189 189 190 194 197 198 198 201 203 204 207 209 211 211 214 216 217 218 222 226 230 234 236 237 239 241 244 246 248 250 252 253 254 254 254 254 254 254 254 253 253 253 253
204 201 199 196 195 194 193 192 189 186 184 181 180 179 178 178 180 181 180 177 176 179 183 189 190 190 189 189 191 193 196 198 199 201 204 205 208 209 210 210 212 216 219 220 222 226 230 234 236 237 239 242 244 246 247 249 252 253 255 255 255 255 255 255 254 254 254 254 253
202 199 195 193 192 191 190 188 186 184 184 182 180 179 179 180 180 179 177 176 179 183 187 191 192 192 190 189 189 191 193 197 201 204 205 206 208 209 209 208 211 216 220 222 222 224 228 235 238 238 238 240 243 245 246 247 249 251 254 255 257 257 258 257 256 255 255 254 254
197 194 191 189 188 188 187 184 184 184 184 183 181 180 179 179 178 177 177 179 183 187 190 192 192 191 189 188 188 189 192 196 201 205 207 207 208 208 208 208 212 217 221 223 223 224 226 230 233 234 235 235 238 241 242 243 244 246 250 253 256 258 259 259 257 256 255 254 254
192 190 188 186 186 186 185 184 185 186 186 184 181 179 179 178 177 177 179 183 187 190 191 191 190 187 186 186 188 190 193 197 202 205 207 208 208 207 208 211 216 219 222 227 233 236 237 237 235 231 228 227 230 234 237 237 238 240 242 247 251 255 258 260 259 257 255 254 253
189 189 188 186 184 185 186 187 187 187 185 183 180 180 179 179 178 179 181 185 189 191 191 189 187 186 185 186 189 193 197 202 204 205 206 208 207 208 210 214 217 219 224 230 238 242 245 246 245 243 237 229 229 231 233 234 232 233 235 240 244 249 254 259 260 260 258 256 254
189 189 188 185 184 186 188 188 187 186 185 182 181 181 181 179 178 180 183 187 189 190 189 187 187 187 187 186 191 196 201 204 206 206 207 207 207 209 212 217 218 220 225 232 239 244 247 250 251 251 250 245 240 238 238 238 233 232 233 238 243 247 251 256 260 263 263 262 259
190 189 187 184 186 188 188 186 186 186 186 184 183 182 181 179 179 181 184 187 187 186 186 187 188 188 188 188 195 199 202 205 205 205 206 207 209 212 215 219 220 223 228 234 240 245 248 251 253 255 255 254 251 249 248 250 247 245 244 246 249 252 254 256 260 265 269 273 272
190 187 185 185 188 188 187 186 188 188 187 184 183 181 180 180 182 183 185 185 184 185 185 186 185 187 191 196 200 201 203 204 204 203 204 206 211 215 218 221 223 229 234 238 242 246 249 252 254 257 258 259 259 258 256 254 254 253 254 254 255 257 259 262 269 276 281 282 281
189 187 186 187 188 188 188 189 189 187 185 183 181 181 181 183 185 185 185 185 186 187 186 183 183 189 196 200 200 201 202 203 202 201 202 205 210 215 219 221 223 229 235 240 244 248 251 254 256 258 261 262 263 263 261 256 255 256 258 259 260 262 267 273 278 281 282 283 284
189 188 188 188 189 189 190 189 187 185 183 182 182 182 184 186 187 188 188 187 188 188 186 183 187 193 198 200 199 200 202 201 200 200 202 206 213 217 219 220 222 228 235 240 245 249 252 255 258 260 262 264 264 263 260 257 258 259 262 264 266 268 270 273 276 278 281 283 285
189 189 189 189 190 190 189 187 186 184 183 182 183 185 187 189 190 190 189 188 187 187 187 187 191 195 198 200 201 201 202 201 201 201 203 206 211 216 219 220 221 227 234 240 244 248 252 255 258 260 262 264 264 264 262 261 261 262 263 265 266 265 266 269 273 277 280 282 283
190 190 190 191 191 189 187 185 185 185 184 185 186 187 189 190 190 190 190 189 188 188 189 191 193 195 197 199 200 202 203 204 204 205 207 208 209 214 218 221 223 228 233 238 243 247 251 254 257 259 262 264 266 266 266 264 262 262 262 263 264 264 264 266 270 274 277 279 280
190 190 191 192 191 189 187 185 185 185 186 187 188 189 190 189 189 190 191 192 191 192 193 194 194 196 197 197 198 200 203 205 205 205 206 206 208 212 216 220 223 227 232 237 242 246 250 254 257 260 263 266 268 269 267 265 263 263 265 267 269 268 268 267 268 270 272 274 274
189 190 192 192 191 188 187 186 186 186 187 189 191 191 191 190 191 191 192 192 192 193 195 197 196 196 197 197 198 200 203 206 205 204 203 203 205 211 217 221 223 228 232 237 242 246 251 254 258 262 265 269 270 270 269 266 267 267 268 270 271 271 269 267 266 267 268 269 267
189 190 191 192 191 190 188 187 187 188 189 191 192 192 192 193 193 194 193 192 191 192 194 195 195 196 197 198 200 202 204 205 204 202 201 201 203 209 216 220 223 228 232 237 242 247 251 255 259 263 266 269 269 269 267 266 267 267 267 268 269 269 267 265 264 265 265 265 261
190 191 191 192 192 192 190 188 188 190 192 193 193 193 192 193 195 195 193 190 190 191 192 192 193 196 198 199 201 203 204 203 201 201 202 203 204 208 214 220 222 227 232 237 243 247 251 255 259 262 265 268 267 265 263 263 264 265 266 266 266 266 264 263 263 264 264 261 257
192 192 192 193 194 193 192 190 191 192 194 195 194 193 193 193 193 193 192 190 189 190 190 191 194 196 198 198 200 203 204 203 202 203 204 206 206 208 212 218 221 225 230 236 242 247 251 255 258 261 263 265 264 262 261 262 262 263 265 266 266 265 263 263 264 264 262 257 258
193 193 194 195 195 194 193 193 194 195 195 195 195 194 193 193 193 192 191 190 189 188 189 191 194 196 197 196 198 200 202 204 205 206 207 208 209 209 211 216 219 223 227 233 240 245 249 253 256 260 262 265 265 263 262 264 264 264 264 265 267 267 266 265 265 263 261 257 262
194 195 196 197 197 196 195 196 197 197 196 195 195 194 194 193 192 190 189 189 189 189 190 192 193 194 193 193 195 198 201 204 206 209 210 210 212 213 214 216 217 219 224 231 237 243 247 251 255 259 263 267 264 261 260 261 262 263 262 262 266 269 270 270 267 262 259 258 264
195 196 197 199 199 198 198 198 199 198 197 195 195 195 193 192 189 187 186 187 188 189 191 192 191 189 189 191 193 197 201 205 207 209 211 211 214 216 217 217 214 213 218 227 235 241 247 251 256 260 263 265 259 253 250 253 256 258 258 259 262 267 271 274 271 265 258 256 262